Regional Weather Roundup
Issued by NWS

Home | Current Version | Previous Version | Graphics & Text | Print | Product List | Glossary On
Versions: 1 2 3 4 5 6 7 8 9 10 11 12 13 14 15 16 17 18 19 20 21 22 23 24 25 26 27 28 29 30 31 32 33 34 35 36 37 38 39 40 41 42 43 44 45 46 47 48 49 50
000
ASUS45 KBOI 280710
RWRID
WEATHER ROUNDUP FOR IDAHO
NATIONAL WEATHER SERVICE BOISE ID
100 AM MDT THU AUG 28 2014

NOTE: "FAIR" INDICATES FEW OR NO CLOUDS BELOW 12000 FEET
WITH NO SIGNIFICANT WEATHER AND/OR OBSTRUCTIONS TO VISIBILITY

IDZ012-014-280800-
SOUTHWEST IDAHO


CITY           SKY/WX    TMP DP  RH WIND       PRES   REMARKS
BOISE          CLEAR     71  40  32 SE8       30.03F
CALDWELL       CLEAR     63  43  48 E6        30.03S
MOUNTAIN HOME  CLEAR     64  37  37 E6        30.06S
$$

IDZ016-017-280800-
SOUTHCENTRAL IDAHO


CITY           SKY/WX    TMP DP  RH WIND       PRES   REMARKS
BURLEY         CLEAR     61  51  70 S10       30.14S
JEROME         CLEAR     61  49  64 SE6       30.14S
TWIN FALLS     CLEAR     66  47  50 S10       30.14S
$$

IDZ019>023-280800-
SOUTHEAST IDAHO


CITY           SKY/WX    TMP DP  RH WIND       PRES   REMARKS
IDAHO FALLS    CLEAR     58  48  69 SW9       30.18S
POCATELLO      CLEAR     57  49  74 CALM      30.18S
REXBURG        CLEAR     62  44  51 S8        30.18S
$$

IDZ006-010-011-018-031-032-280800-
CENTRAL IDAHO MOUNTAINS


CITY           SKY/WX    TMP DP  RH WIND       PRES   REMARKS
MCCALL         CLEAR     53  42  66 CALM      30.18S
HAILEY         CLEAR     55  46  71 NW8       30.23F
STANLEY          N/A     44  37  76 E3        30.31S
SALMON         CLEAR     54  48  82 CALM      30.14R
CHALLIS        CLEAR     55  46  71 CALM      30.19R
$$

IDZ002-004-006-007-026-280800-
NORTHERN IDAHO


CITY           SKY/WX    TMP DP  RH WIND       PRES   REMARKS
LEWISTON       CLEAR     73  48  41 S5        29.93R
LOWELL           N/A     60  54  80 N3        30.02S
COEUR D`ALENE  CLEAR     66  52  59 E3        29.95R
MULLAN PASS    CLEAR     61  39  44 SW6       30.18F
$$



USA.gov is the U.S. government's official web portal to all federal, state and local government web resources and services.